Regional Weather Roundup
Issued by NWS Green Bay, WI

Home | Current Version | Previous Version | Graphics & Text | Print | Product List | Glossary Off
Versions: 1 2 3 4 5 6 7 8 9 10 11 12 13 14 15 16 17 18 19 20 21 22 23 24 25 26 27 28 29 30 31 32 33 34 35 36 37 38 39 40 41 42 43 44 45 46 47 48 49 50

026
ASUS43 KGRB 100511
RWRGRB

NORTH-CENTRAL AND NORTHEAST WISCONSIN REGIONAL WEATHER ROUNDUP
NATIONAL WEATHER SERVICE GREEN BAY WI
1100 PM CST TUE FEB 09 2016

WIZ005-009-010>012-018-019-100600-
NORTH CENTRAL WISCONSIN

CITY           SKY/WX    TMP DP  RH WIND       PRES   REMARKS
IRONWOOD       CLOUDY     9   1  72 N8        29.97S WCI  -4
MANITOWISH WTR CLOUDY     6   1  78 N12G17    29.94R WCI -10
ARBOR VITAE    CLOUDY     9   2  74 N13       29.93R WCI  -7
EAGLE RIVER    LGT SNOW   7  -2  68 N16G22    29.90R WCI -11
LAND O LAKES   LGT SNOW   6   1  79 N9        29.91R WCI  -7
RHINELANDER    LGT SNOW   7   2  80 N8        29.91R WCI  -6
PHILLIPS       CLOUDY     5  -1  76 NW6       29.97R WCI  -5
ANTIGO         CLOUDY     8   1  74 N13       29.90S WCI  -8
TOMAHAWK       CLOUDY     7   1  76 NW10      29.94S WCI  -7
MERRILL        CLOUDY     9   1  68 NW8G20    29.95S WCI  -3
$$

WIZ013-073-100600-
NORTHEAST WISCONSIN

CITY           SKY/WX    TMP DP  RH WIND       PRES   REMARKS
IRON MOUNTAIN  CLOUDY     8   1  73 NW14      29.88S BLWGSNOWWCI  -8
MARINETTE      MOCLDY    12   0  57 NW14G23   29.90S WCI  -3
OCONTO         CLEAR     11  -1  58 NW8       29.93S WCI   0
$$

WIZ017-030-035>037-045-100600-
CENTRAL WISCONSIN

CITY           SKY/WX    TMP DP  RH WIND       PRES   REMARKS
MEDFORD        CLOUDY     6  -1  71 N14       29.96R WCI -10
WAUSAU         CLOUDY    11   0  61 N18G28    29.94S WCI  -7
MOSINEE        CLOUDY    10   1  67 N15       29.96S WCI  -6
MARSHFIELD     CLOUDY    10  -2  58 N12       29.97R WCI  -5
WISC RAPIDS    CLOUDY    10  -2  58 N14G23    30.00S WCI  -6
STEVENS POINT  CLOUDY     9  -2  61 N13G20    29.97R WCI  -7
WAUPACA        CLOUDY    14   2  58 NW10      29.97S WCI   1
SHAWANO        CLOUDY    15  -1  50 N14G20    29.94F WCI   0
CLINTONVILLE   CLOUDY    14   0  52 NW8       29.95S WCI   3
WAUTOMA        MOCLDY    11  -1  58 N9        29.99S WCI  -2
$$

WIZ038-039-048-051-100600-
FOX VALLEY

CITY           SKY/WX    TMP DP  RH WIND       PRES   REMARKS
NWS GREEN BAY  PTCLDY    12   1  61 NW12      29.93S WCI  -2
APPLETON       MOCLDY    12   0  57 NW14      29.91F WCI  -3
OSHKOSH        PTCLDY    12   0  58 NW15      29.94S WCI  -4
FOND DU LAC    CLOUDY    13   1  59 NW18      29.95R WCI  -4
$$

WIZ022-050-052-100600-
EAST CENTRAL WISCONSIN

CITY           SKY/WX    TMP DP  RH WIND       PRES   REMARKS
EPHRAIM        CLOUDY    13   4  67 NW16G25   29.85S WCI  -4
STURGEON BAY   CLOUDY    12   1  62 NW20G25   29.90S WCI  -6
MANITOWOC      CLOUDY    13   5  70 NW16      29.91S WCI  -3
SHEBOYGAN      MOCLDY    13   4  67 NW12      29.90F WCI  -1
$$

LMZ563-521-522-541>543-100600-
LAKESHORE

STATION/POSITION TIME  TEMP    WIND        PRES    VSBY  WAVE
                       AIR SEA DIR/SP/G                  HT/PER
                 (UTC) (F)     (DEG/KT/KT) (MB)    (MI)  (FT/S)
SHEBOYGAN LKSHOR 0500   14     300/ 15/ 20 1014.2F
KEWAUNEE LKSHORE 0400   13     360/  9/ 15 1011.8F
ALGOMA MARINA    0411          330/ 12/ 18   N/A
CHAMBERS ISLAND  0400   14     300/ 15/ 22 1011.9F
MENOMINEE LKSHOR 0400   13     310/ 19     1011.4F
$$




USA.gov is the U.S. government's official web portal to all federal, state and local government web resources and services.